Location: �chenoz-la-M�line
(47.6009°N, 6.1354°E)
Time: 13:01:06
(UTC+00:00)

Meteor 1-16 Rocket - Pass Details

Date: 27 January 2021
Orbit: 789 x 908 km, 81.2° (Epoch: 02 March)

Event Time Altitude Azimuth Distance (km) Brightness Sun altitude
Rises 04:49:34 0° 194° (SSW) 3,512 7.3 -23.3°
Reaches altitude 10° 04:52:01 10° 196° (SSW) 2,581 6.6 -22.9°
Maximum altitude 04:57:56 77° 282° (WNW) 938 4.2 -21.9°
Drops below altitude 10° 05:03:53 10° 9° (N) 2,592 6.8 -20.9°
Sets 05:06:22 0° 11° (N) 3,528 7.5 -20.4°
